This demonstration page uses our WeatherBlox Daily Observations layout. Learn more.

Left ArrowRight Arrow

Hourly Observations for July 6, 2015

Temp ( °F °C ) Dew Point ( °F °C ) Humidity (%) Winds ( mph kmh ) Pressure ( in mb ) Visibility ( mi km ) Precip ( " mm )
12:53 am 00:53 Clear 81 27.2 63 17.2 54 54 SSE 18 30 29.79 1009 10 16 0.00 0.00
1:53 am 01:53 Clear 80 26.7 64 17.8 58 58 SSE 15 24 29.79 1009 10 16 0.00 0.00
2:53 am 02:53 Clear 79 26.1 64 17.8 60 60 SSE 15 24 29.78 1008 10 16 0.00 0.00
3:53 am 03:53 Clear 77 25 64 17.8 64 64 SSE 10 17 29.77 1008 10 16 0.00 0.00
4:53 am 04:53 Clear 76 24.4 65 18.3 69 69 SSE 10 17 29.77 1008 10 16 0.00 0.00
5:53 am 05:53 Clear 75 23.9 65 18.3 71 71 SSE 9 15 29.77 1008 10 16 0.00 0.00
6:53 am 06:53 Clear 74 23.3 65 18.3 74 74 SE 7 11 29.80 1009 10 16 0.00 0.00
7:53 am 07:53 Sunny 77 25 66 18.9 69 69 SE 10 17 29.82 1010 10 16 0.00 0.00
8:53 am 08:53 Sunny 80 26.7 65 18.3 60 60 SSE 12 19 29.83 1010 10 16 0.00 0.00
9:53 am 09:53 Sunny 83 28.3 65 18.3 55 55 SSE 9 15 29.83 1010 10 16 0.00 0.00
10:53 am 10:53 Sunny 88 31.1 64 17.8 45 45 Calm 29.82 1010 10 16 0.00 0.00
11:53 am 11:53 Mostly Sunny 95 35 61 16.1 32 32 W 12 19 29.80 1009 10 16 0.00 0.00
12:53 pm 12:53 Sunny 99 37.2 59 15 27 27 W 14 22 29.78 1009 10 16 0.00 0.00
1:53 pm 13:53 Mostly Sunny 101 38.3 58 14.4 24 24 W 13 20 29.75 1008 10 16 0.00 0.00
2:53 pm 14:53 Partly Cloudy 101 38.3 58 14.4 24 24 SW 15 24 29.73 1007 10 16 0.00 0.00
3:49 pm 15:49 Cloudy 97 36 61 16 30 30 S 25 41 29.62 1003 10 16 0.00 0.00
3:53 pm 15:53 Cloudy 96 35.6 60 15.6 30 30 S 21 33 29.73 1007 10 16 0.00 0.00
4:14 pm 16:14 Windy with Storms Likely 84 29 70 21 62 62 SSE 20 31 29.68 1005 10 16 0.00 0.00
4:29 pm 16:29 Cloudy 86 30 66 18.9 51 51 SSE 23 37 29.71 1006 10 16 0.00 0.03
4:53 pm 16:53 Cloudy with Light Rain 87 30.6 66 18.9 50 50 SSE 25 41 29.75 1008 10 16 0.00 0.03
5:53 pm 17:53 Sunny 92 33.3 64 17.8 40 40 SSE 23 37 29.73 1007 10 16 0.00 0.03
6:53 pm 18:53 Sunny 92 33.3 62 16.7 37 37 S 21 33 29.70 1006 10 16 0.00 0.00
7:53 pm 19:53 Sunny 87 30.6 62 16.7 43 43 S 22 35 29.72 1007 10 16 0.00 0.00
8:53 pm 20:53 Sunny 85 29.4 63 17.2 48 48 SSE 16 26 29.72 1007 10 16 0.00 0.00
9:53 pm 21:53 Clear 82 27.8 62 16.7 51 51 SSE 13 20 29.72 1007 10 16 0.00 0.00
10:53 pm 22:53 Mostly Cloudy 81 27.2 62 16.7 53 53 SE 13 20 29.75 1007 10 16 0.00 0.00
11:49 pm 23:49 Mostly Cloudy with Nearby Thunderstorms 79 26 64 18 61 61 SE 10 17 29.74 1007 10 16 0.00 0.00
11:53 pm 23:53 Cloudy with Nearby Thunderstorms 79 26.1 64 17.8 60 60 VRB 5 7 29.77 1008 10 16 0.00 0.00

Powered by AerisWeather